Location: Oroua River
(40.4333°S, 175.4333°E)
Time: 14:03:52
(UTC+00:00)

CZ-2C R/B - Pass Details

Date: 03 February 2023
Orbit: 703 x 907 km, 98.1° (Epoch: 23 March)

Event Time Altitude Azimuth Distance (km) Brightness Sun altitude
Exits shadow 15:53:23 17° 353° (N) 1,813 4.5 -16.4°
Maximum altitude 15:57:02 53° 280° (W) 895 3.0 -15.9°
Drops below altitude 10° 16:01:47 10° 203° (SSW) 2,217 5.6 -15.1°
Sets 16:04:05 0° 197° (SSW) 3,135 6.4 -14.8°
